SCP
0 1 1 1 0 0 0 0 0 0 0 0 0 0 0 0 0 0 0 0 0 0 0 0 0 0 0 0 0 0 0 0 0 0 0 0 0 0 0 0 0 0 -0 -0 -0
0 1 0 1 0 1 0 0 0 0 0 0 0 0 0 0 0 0 0 0 0 0 0 0 0 0 0 0 0 0 0 0 0 0 0 0 0 0 0 0 0 0 0 0 0
0 1 1 1 1 0 0 0 0 0 0 0 0 0 0 0 0 0 0 0 0 0 0 0 0 0 0 0 0 0 0 0 0 0 0 0 0 0 0 0 0 0 0 0 0
0 1 1 1 1 0 0 0 0 0 0 0 0 0 0 0 0 0 0 0 0 0 0 0 0 0 0 0 0 0 0 0 0 0 0 0 0 0 0 0 0 0 0 -0 -0
1 1 1 1 1 0 0 0 0 0 0 0 0 0 0 0 0 0 0 0 0 0 0 0 0 0 0 0 0 0 0 0 0 0 0 0 0 0 0 0 0 0 0 -0 -0
1 1 1 0 0 0 0 0 0 0 0 0 0 0 0 0 0 0 0 0 0 0 0 0 0 0 0 0 0 0 0 0 0 0 0 0 0 0 0 0 0 0 0 0 0
0 0 1 1 0 0 0 0 0 0 0 0 0 0 0 0 0 0 0 0 0 0 0 0 0 0 0 0 0 0 0 0 0 0 0 0 0 0 0 0 0 0 0 0 0
0 1 1 1 0 0 0 0 0 0 0 0 0 0 0 0 0 0 0 0 0 0 0 0 0 0 0 0 0 0 0 0 0 0 0 0 0 0 0 0 0 0 0 0 0
0 0 0 0 0 0 0 0 0 0 0 0 0 0 0 0 0 0 0 0 0 0 0 0 0 0 0 0 0 0 0 0 0 0 0 0 -0 0 0 0 0 0 0 0 0
0 0 0 0 0 0 0 0 0 0 0 0 0 0 0 0 0 0 0 0 0 0 0 0 0 0 0 0 0 0 0 0 0 0 0 0 0 0 0 0 0 0 0 0 0
0 0 0 0 0 0 0 0 0 0 0 0 0 0 0 0 0 0 0 0 0 0 0 0 0 0 0 0 0 0 0 0 0 0 0 0 0 0 0 0 0 0 0 0 0
0 0 0 0 0 0 0 0 0 0 0 0 0 0 0 0 0 0 0 0 0 0 0 0 0 0 0 0 0 0 0 0 0 0 0 0 -0 0 0 0 0 0 0 0 0
0 0 0 0 0 0 0 0 0 0 0 0 0 0 0 0 0 0 0 0 0 0 0 0 0 0 0 0 0 0 0 0 0 0 0 0 -0 -0 -0 0 0 0 0 0 0
0 0 0 0 0 0 0 0 0 0 0 0 0 0 0 0 0 0 0 0 0 0 0 0 0 0 0 0 0 0 0 0 0 0 0 0 0 0 -0 0 0 0 0 0 0
0 0 0 0 0 0 0 0 0 0 0 0 0 0 0 0 0 0 0 0 0 0 0 0 0 0 0 0 0 0 0 0 0 0 0 0 0 -0 0 0 0 0 0 0 0
0 0 0 0 0 0 0 0 0 0 0 0 0 0 0 0 0 0 0 0 0 0 0 0 0 0 0 0 0 0 0 0 0 0 0 0 0 0 0 0 0 0 0 0 0
0 0 0 0 0 0 0 0 0 0 0 0 0 0 0 0 0 0 0 0 0 0 0 0 0 0 0 0 0 0 0 0 0 0 0 0 0 0 0 0 0 0 0 0 0
0 0 0 0 0 0 0 0 0 0 0 0 0 0 0 0 0 0 0 0 0 0 0 0 0 0 0 0 0 0 0 0 0 0 0 0 0 0 0 0 0 0 0 0 0
0 0 0 0 0 0 0 0 0 0 0 0 0 0 0 0 0 0 0 0 0 0 0 0 0 0 0 0 0 0 0 0 0 0 0 0 0 0 0 0 0 0 0 0 0
0 0 0 0 0 0 -0 0 0 0 0 0 0 0 0 0 0 0 0 0 0 0 0 0 0 0 0 0 0 0 0 0 0 0 0 0 0 0 0 0 0 0 0 0 0
0 0 0 0 0 0 0 0 0 0 0 0 0 0 0 0 0 0 0 0 0 0 0 0 0 0 0 0 0 0 0 0 0 0 0 0 0 -0 -0 0 0 0 0 0 0
0 0 0 0 0 0 -0 0 0 0 0 0 0 0 0 0 0 0 0 0 0 0 0 0 0 0 0 0 0 0 0 0 0 0 0 0 0 0 0 -0 -0 0 0 0 0
0 0 0 0 0 0 -0 0 0 0 0 0 0 0 0 0 0 0 0 0 0 0 0 0 0 0 0 0 0 0 0 0 0 0 0 0 0 0 0 0 0 0 0 0 0
0 0 0 0 0 0 0 0 0 0 0 0 0 0 0 0 0 0 0 0 0 0 0 0 0 0 0 0 0 0 0 0 0 0 0 0 0 0 0 0 0 0 0 0 0
0 0 0 0 0 0 0 0 0 0 0 0 0 0 0 0 0 0 0 0 0 0 0 0 0 0 0 0 0 0 0 0 0 0 0 0 0 0 0 0 -0 0 0 0 0
0 0 0 0 0 -0 0 0 0 0 0 0 0 0 0 0 0 0 0 0 0 0 0 0 0 0 0 0 0 0 0 0 0 0 0 0 0 0 0 0 -0 -0 -0 0 0
0 0 0 0 0 0 0 0 0 0 0 0 0 0 0 0 0 0 0 0 0 0 0 0 0 0 0 0 0 0 0 0 0 0 0 0 0 0 0 0 0 0 -0 -0 0
Wind_Speed_500mb
64 66 65 70 67 64 65 74 72 73 69 59 50 56 51 47 45 48 54 47 46 22 27 37 34 29 18 17 9 9 7 4 7 10 6 21 10 14 12 19 16 17 7 7 46
55 63 64 68 71 65 67 85 68 76 74 63 50 60 58 47 45 59 58 47 41 39 22 37 48 35 16 19 15 7 6 12 7 6 7 21 16 30 15 18 11 20 17 17 51
49 55 63 66 66 66 72 80 69 76 75 65 54 62 61 50 45 58 61 49 41 38 37 36 40 34 15 19 13 11 8 2 11 8 6 13 16 25 25 6 27 36 31 40 56
49 49 56 64 66 60 57 68 73 81 76 67 58 66 67 57 19 34 57 56 49 39 38 35 36 29 12 12 17 12 12 5 7 15 5 5 14 17 32 17 17 30 31 46 60
50 44 49 59 64 59 57 58 71 78 79 72 62 71 74 53 45 5 27 58 52 47 49 41 44 30 11 19 19 9 13 12 16 14 10 9 17 12 35 20 9 29 38 47 59
50 46 47 54 58 63 53 57 79 83 80 74 66 78 77 39 54 50 9 53 60 54 58 43 31 33 19 22 16 19 17 6 5 26 10 4 4 6 14 36 21 29 44 50 59
55 47 47 52 58 62 62 54 75 72 70 73 73 86 60 51 49 71 26 42 54 58 62 52 27 34 26 13 17 13 11 10 10 12 11 4 5 15 14 31 31 35 45 54 61
54 52 49 48 52 52 49 47 60 69 83 79 80 79 24 46 33 50 50 39 42 45 47 55 31 32 11 30 9 10 8 13 15 6 6 1 17 14 25 29 34 39 46 54 60
52 52 49 47 49 49 51 55 58 70 82 76 85 77 19 49 44 40 46 49 45 42 31 52 39 12 13 13 7 14 9 7 5 11 3 9 12 11 27 36 39 44 49 54 59
49 51 52 50 46 50 41 59 56 66 77 77 68 42 34 53 64 53 47 50 48 47 35 26 15 6 6 14 30 11 12 8 14 2 6 10 18 22 20 35 45 48 54 56 63
45 44 46 53 46 47 41 54 35 46 94 43 64 22 51 59 66 54 60 51 49 45 13 11 9 21 33 22 4 19 6 18 9 8 4 11 21 26 33 29 38 44 58 62 65
45 41 33 41 47 43 42 69 79 17 70 59 53 49 67 84 32 65 64 31 33 15 22 8 19 11 21 18 12 22 17 8 6 5 8 23 44 28 19 25 51 58 58 67 63
50 45 39 29 40 44 54 80 65 53 17 34 56 57 78 74 37 62 63 30 28 12 22 17 6 26 23 24 24 10 25 15 6 5 6 6 29 35 15 40 40 47 60 59 68
52 51 41 35 34 51 59 56 50 65 9 18 27 26 61 53 17 70 59 30 8 19 13 5 19 32 28 28 31 15 8 12 13 8 9 8 12 23 19 25 22 61 56 66 68
54 50 51 42 26 34 62 44 64 54 19 26 16 63 59 54 61 42 59 18 22 19 11 13 20 29 28 25 30 7 24 12 11 11 4 10 8 14 14 21 21 44 68 70 69
54 48 47 48 52 36 45 43 63 12 11 18 22 25 37 50 26 37 22 20 18 13 11 5 5 18 14 12 26 29 26 22 11 5 10 15 20 14 19 28 15 34 72 80 77
48 43 43 46 47 48 38 60 13 11 13 16 20 35 45 34 20 33 20 24 14 20 18 8 8 1 17 19 19 9 26 7 3 6 11 6 14 41 17 14 17 30 61 75 82
42 40 42 48 47 43 51 7 10 11 11 9 34 45 15 40 29 26 34 23 8 14 10 16 13 17 7 11 15 19 2 10 14 11 4 2 21 13 30 65 65 57 59 51 67
38 37 36 49 48 38 18 11 9 18 16 30 42 38 21 12 17 26 31 36 13 13 15 20 8 2 4 11 24 8 8 2 7 4 4 11 15 17 21 20 24 49 48 62 60
31 24 31 32 40 39 2 10 7 13 26 43 39 20 33 24 30 37 36 29 17 12 8 14 11 7 11 16 10 7 11 4 3 10 9 9 10 22 6 15 19 23 55 63 57
27 16 20 29 35 13 5 8 6 22 59 44 18 17 24 38 16 44 47 6 15 17 10 12 10 3 13 15 20 10 9 4 4 7 7 3 12 14 26 28 17 29 53 54 66
26 8 21 47 7 3 4 11 16 37 55 6 10 12 43 38 24 16 39 14 47 32 19 10 11 9 6 9 15 10 17 17 9 11 4 5 17 5 13 11 8 23 27 30 38
22 11 18 53 13 6 8 12 26 46 28 15 13 9 40 29 18 11 15 14 47 42 32 16 6 9 4 8 3 14 14 20 2 4 13 7 21 4 7 10 13 20 20 28 38
11 6 4 13 6 12 9 11 19 58 9 9 16 42 32 25 10 19 16 7 49 39 29 18 8 12 21 10 18 15 30 29 30 7 15 26 47 25 19 12 15 19 30 27 24
7 2 6 7 7 11 14 10 35 16 4 26 16 44 23 15 11 13 12 11 16 39 16 7 9 7 6 12 10 11 21 38 39 53 21 59 40 37 33 23 14 26 26 29 26
8 3 1 3 4 22 20 13 45 21 17 13 32 52 25 29 20 27 21 11 14 9 8 2 3 8 4 9 13 8 26 40 49 45 45 42 50 7 16 35 42 17 23 31 38
10 10 4 2 3 8 15 8 41 18 7 13 42 29 14 19 34 50 52 40 40 32 32 16 11 7 8 4 11 12 32 40 39 41 48 31 67 12 10 25 40 42 28 39 43
Wind_Direction_500mb
241 232 228 224 225 225 223 224 217 223 228 228 226 219 223 225 216 221 225 233 231 236 217 210 207 204 182 153 188 154 77 188 220 168 206 160 149 157 168 149 167 192 189 188 168
238 233 226 224 224 229 230 226 227 220 226 227 224 216 217 222 219 228 229 227 230 227 230 204 202 191 169 152 168 133 138 204 215 211 206 180 175 161 157 156 200 195 201 172 173
235 231 227 222 223 228 228 222 221 223 226 224 222 213 213 212 222 236 225 224 225 226 215 203 206 182 164 158 152 154 167 271 0 274 287 187 185 175 146 206 208 206 189 171 178
233 229 226 221 220 216 216 221 220 223 223 221 219 210 211 205 212 252 237 222 216 216 205 199 194 178 150 140 160 133 92 44 347 343 305 216 180 190 188 202 226 223 206 179 185
228 228 221 217 219 216 221 227 222 231 220 217 214 207 206 190 203 201 224 205 208 207 202 194 191 177 164 163 145 139 161 103 36 11 287 251 223 206 218 200 211 200 199 192 194
227 226 220 217 216 222 229 224 220 214 217 212 207 207 203 204 206 216 284 193 197 201 197 195 199 186 181 181 194 163 148 111 358 344 308 208 252 220 235 209 203 196 201 199 199
224 223 221 214 218 221 225 227 225 222 218 208 200 205 200 205 212 213 233 191 192 198 194 192 196 186 157 124 138 158 131 58 251 8 332 290 270 231 247 199 199 195 202 202 203
217 217 218 216 218 219 224 231 225 213 222 198 198 190 200 189 188 208 212 193 191 197 202 193 189 194 147 126 87 104 76 178 231 336 12 188 263 263 220 201 200 198 202 203 206
213 214 215 218 219 221 228 226 223 216 213 192 191 197 199 175 178 184 198 191 185 183 183 198 188 162 136 130 118 18 158 123 313 183 218 176 277 279 212 207 210 207 204 204 208
212 215 216 220 220 219 228 218 221 210 201 188 189 174 164 178 174 170 170 179 168 166 140 153 155 142 206 179 200 148 175 183 193 194 167 246 267 280 262 216 220 213 213 208 211
212 216 222 224 219 219 223 208 190 218 190 186 162 191 165 169 171 167 166 167 159 161 163 161 173 197 204 191 188 162 169 195 165 140 117 264 269 269 261 238 231 226 224 218 216
208 211 216 218 216 216 218 210 211 227 180 185 170 181 159 160 138 155 161 153 163 159 119 124 217 169 161 177 140 161 179 195 353 77 194 256 263 271 233 235 233 230 228 228 224
213 214 213 213 208 214 218 215 197 205 198 162 169 164 162 164 152 156 162 158 162 130 166 185 157 150 161 178 184 173 193 178 180 102 243 321 269 256 240 238 239 238 239 236 231
212 215 213 213 216 220 223 221 198 178 144 149 163 176 157 161 134 161 160 143 158 161 160 143 152 158 172 184 188 187 103 108 109 107 221 180 283 235 230 240 214 231 231 234 235
208 213 215 216 211 221 226 224 207 177 192 152 156 162 166 163 135 169 164 130 151 145 154 173 162 155 176 186 175 160 127 97 101 123 339 207 248 270 170 246 237 227 230 233 236
207 217 217 218 216 224 208 201 179 163 175 154 161 171 152 146 145 135 146 125 124 110 58 109 154 162 165 151 169 129 96 76 68 115 246 196 218 232 216 224 245 239 230 232 236
212 212 213 211 221 214 200 186 191 206 139 160 167 164 141 149 129 152 149 143 159 152 163 141 157 283 148 98 130 149 147 113 161 183 252 257 196 243 250 209 221 229 237 233 233
204 212 219 213 203 204 216 143 185 126 164 167 155 142 126 143 152 146 154 156 190 106 139 154 190 173 173 144 153 147 206 152 185 194 208 77 232 252 228 235 239 248 248 242 237
210 212 222 215 207 219 219 217 169 154 149 145 135 141 138 126 139 151 176 186 159 174 140 169 164 280 79 138 145 169 172 91 86 66 96 206 283 278 235 248 240 238 243 237 239
193 195 227 218 201 200 138 271 205 148 132 150 144 160 155 156 151 173 174 190 165 161 191 192 117 229 165 96 38 143 152 114 178 192 245 263 265 246 333 261 240 239 233 235 239
158 153 159 177 187 113 194 245 231 178 149 162 159 143 167 158 164 177 177 156 132 149 91 146 106 116 140 205 166 139 163 104 102 201 207 289 259 225 211 213 220 231 239 248 246
157 141 152 169 134 176 208 177 211 181 166 143 102 68 166 147 158 154 180 160 159 150 148 203 112 138 199 182 159 139 179 177 171 197 224 166 262 277 260 267 264 275 285 287 282
160 130 142 171 173 195 175 196 208 172 162 153 142 143 156 154 132 128 150 195 163 172 161 177 147 94 43 332 129 204 182 202 183 70 206 163 262 136 282 301 287 279 287 272 269
139 119 118 170 152 145 198 209 177 171 155 114 113 125 129 156 81 154 147 148 173 175 185 132 144 154 188 178 140 189 195 196 206 184 214 223 251 279 294 273 294 299 303 293 277
116 151 159 169 188 170 178 214 170 167 236 145 123 154 143 145 99 135 133 97 139 182 176 113 134 121 100 133 122 154 174 190 202 223 199 243 246 242 252 276 277 299 310 301 307
114 136 100 101 153 191 190 210 178 161 161 202 158 164 154 157 169 167 133 116 161 132 125 148 126 118 84 147 152 170 205 198 211 225 238 252 278 267 265 282 296 263 282 294 308
122 132 137 313 217 176 193 194 196 166 8 143 148 137 102 150 136 147 152 143 151 167 188 150 141 106 204 130 94 312 204 204 213 218 219 223 243 149 249 254 266 288 262 283 293
Wind_Speed_850mb
64 66 65 70 67 64 65 74 72 73 69 59 50 56 51 47 45 48 54 47 46 22 27 37 34 29 18 17 9 9 7 4 7 10 6 21 10 14 12 19 16 17 7 7 46
55 63 64 68 71 65 67 85 68 76 74 63 50 60 58 47 45 59 58 47 41 39 22 37 48 35 16 19 15 7 6 12 7 6 7 21 16 30 15 18 11 20 17 17 51
49 55 63 66 66 66 72 80 69 76 75 65 54 62 61 50 45 58 61 49 41 38 37 36 40 34 15 19 13 11 8 2 11 8 6 13 16 25 25 6 27 36 31 40 56
49 49 56 64 66 60 57 68 73 81 76 67 58 66 67 57 19 34 57 56 49 39 38 35 36 29 12 12 17 12 12 5 7 15 5 5 14 17 32 17 17 30 31 46 60
50 44 49 59 64 59 57 58 71 78 79 72 62 71 74 53 45 5 27 58 52 47 49 41 44 30 11 19 19 9 13 12 16 14 10 9 17 12 35 20 9 29 38 47 59
50 46 47 54 58 63 53 57 79 83 80 74 66 78 77 39 54 50 9 53 60 54 58 43 31 33 19 22 16 19 17 6 5 26 10 4 4 6 14 36 21 29 44 50 59
55 47 47 52 58 62 62 54 75 72 70 73 73 86 60 51 49 71 26 42 54 58 62 52 27 34 26 13 17 13 11 10 10 12 11 4 5 15 14 31 31 35 45 54 61
54 52 49 48 52 52 49 47 60 69 83 79 80 79 24 46 33 50 50 39 42 45 47 55 31 32 11 30 9 10 8 13 15 6 6 1 17 14 25 29 34 39 46 54 60
52 52 49 47 49 49 51 55 58 70 82 76 85 77 19 49 44 40 46 49 45 42 31 52 39 12 13 13 7 14 9 7 5 11 3 9 12 11 27 36 39 44 49 54 59
49 51 52 50 46 50 41 59 56 66 77 77 68 42 34 53 64 53 47 50 48 47 35 26 15 6 6 14 30 11 12 8 14 2 6 10 18 22 20 35 45 48 54 56 63
45 44 46 53 46 47 41 54 35 46 94 43 64 22 51 59 66 54 60 51 49 45 13 11 9 21 33 22 4 19 6 18 9 8 4 11 21 26 33 29 38 44 58 62 65
45 41 33 41 47 43 42 69 79 17 70 59 53 49 67 84 32 65 64 31 33 15 22 8 19 11 21 18 12 22 17 8 6 5 8 23 44 28 19 25 51 58 58 67 63
50 45 39 29 40 44 54 80 65 53 17 34 56 57 78 74 37 62 63 30 28 12 22 17 6 26 23 24 24 10 25 15 6 5 6 6 29 35 15 40 40 47 60 59 68
52 51 41 35 34 51 59 56 50 65 9 18 27 26 61 53 17 70 59 30 8 19 13 5 19 32 28 28 31 15 8 12 13 8 9 8 12 23 19 25 22 61 56 66 68
54 50 51 42 26 34 62 44 64 54 19 26 16 63 59 54 61 42 59 18 22 19 11 13 20 29 28 25 30 7 24 12 11 11 4 10 8 14 14 21 21 44 68 70 69
54 48 47 48 52 36 45 43 63 12 11 18 22 25 37 50 26 37 22 20 18 13 11 5 5 18 14 12 26 29 26 22 11 5 10 15 20 14 19 28 15 34 72 80 77
48 43 43 46 47 48 38 60 13 11 13 16 20 35 45 34 20 33 20 24 14 20 18 8 8 1 17 19 19 9 26 7 3 6 11 6 14 41 17 14 17 30 61 75 82
42 40 42 48 47 43 51 7 10 11 11 9 34 45 15 40 29 26 34 23 8 14 10 16 13 17 7 11 15 19 2 10 14 11 4 2 21 13 30 65 65 57 59 51 67
38 37 36 49 48 38 18 11 9 18 16 30 42 38 21 12 17 26 31 36 13 13 15 20 8 2 4 11 24 8 8 2 7 4 4 11 15 17 21 20 24 49 48 62 60
31 24 31 32 40 39 2 10 7 13 26 43 39 20 33 24 30 37 36 29 17 12 8 14 11 7 11 16 10 7 11 4 3 10 9 9 10 22 6 15 19 23 55 63 57
27 16 20 29 35 13 5 8 6 22 59 44 18 17 24 38 16 44 47 6 15 17 10 12 10 3 13 15 20 10 9 4 4 7 7 3 12 14 26 28 17 29 53 54 66
26 8 21 47 7 3 4 11 16 37 55 6 10 12 43 38 24 16 39 14 47 32 19 10 11 9 6 9 15 10 17 17 9 11 4 5 17 5 13 11 8 23 27 30 38
22 11 18 53 13 6 8 12 26 46 28 15 13 9 40 29 18 11 15 14 47 42 32 16 6 9 4 8 3 14 14 20 2 4 13 7 21 4 7 10 13 20 20 28 38
11 6 4 13 6 12 9 11 19 58 9 9 16 42 32 25 10 19 16 7 49 39 29 18 8 12 21 10 18 15 30 29 30 7 15 26 47 25 19 12 15 19 30 27 24
7 2 6 7 7 11 14 10 35 16 4 26 16 44 23 15 11 13 12 11 16 39 16 7 9 7 6 12 10 11 21 38 39 53 21 59 40 37 33 23 14 26 26 29 26
8 3 1 3 4 22 20 13 45 21 17 13 32 52 25 29 20 27 21 11 14 9 8 2 3 8 4 9 13 8 26 40 49 45 45 42 50 7 16 35 42 17 23 31 38
10 10 4 2 3 8 15 8 41 18 7 13 42 29 14 19 34 50 52 40 40 32 32 16 11 7 8 4 11 12 32 40 39 41 48 31 67 12 10 25 40 42 28 39 43
Wind_Direction_850mb
241 232 228 224 225 225 223 224 217 223 228 228 226 219 223 225 216 221 225 233 231 236 217 210 207 204 182 153 188 154 77 188 220 168 206 160 149 157 168 149 167 192 189 188 168
238 233 226 224 224 229 230 226 227 220 226 227 224 216 217 222 219 228 229 227 230 227 230 204 202 191 169 152 168 133 138 204 215 211 206 180 175 161 157 156 200 195 201 172 173
235 231 227 222 223 228 228 222 221 223 226 224 222 213 213 212 222 236 225 224 225 226 215 203 206 182 164 158 152 154 167 271 0 274 287 187 185 175 146 206 208 206 189 171 178
233 229 226 221 220 216 216 221 220 223 223 221 219 210 211 205 212 252 237 222 216 216 205 199 194 178 150 140 160 133 92 44 347 343 305 216 180 190 188 202 226 223 206 179 185
228 228 221 217 219 216 221 227 222 231 220 217 214 207 206 190 203 201 224 205 208 207 202 194 191 177 164 163 145 139 161 103 36 11 287 251 223 206 218 200 211 200 199 192 194
227 226 220 217 216 222 229 224 220 214 217 212 207 207 203 204 206 216 284 193 197 201 197 195 199 186 181 181 194 163 148 111 358 344 308 208 252 220 235 209 203 196 201 199 199
224 223 221 214 218 221 225 227 225 222 218 208 200 205 200 205 212 213 233 191 192 198 194 192 196 186 157 124 138 158 131 58 251 8 332 290 270 231 247 199 199 195 202 202 203
217 217 218 216 218 219 224 231 225 213 222 198 198 190 200 189 188 208 212 193 191 197 202 193 189 194 147 126 87 104 76 178 231 336 12 188 263 263 220 201 200 198 202 203 206
213 214 215 218 219 221 228 226 223 216 213 192 191 197 199 175 178 184 198 191 185 183 183 198 188 162 136 130 118 18 158 123 313 183 218 176 277 279 212 207 210 207 204 204 208
212 215 216 220 220 219 228 218 221 210 201 188 189 174 164 178 174 170 170 179 168 166 140 153 155 142 206 179 200 148 175 183 193 194 167 246 267 280 262 216 220 213 213 208 211
212 216 222 224 219 219 223 208 190 218 190 186 162 191 165 169 171 167 166 167 159 161 163 161 173 197 204 191 188 162 169 195 165 140 117 264 269 269 261 238 231 226 224 218 216
208 211 216 218 216 216 218 210 211 227 180 185 170 181 159 160 138 155 161 153 163 159 119 124 217 169 161 177 140 161 179 195 353 77 194 256 263 271 233 235 233 230 228 228 224
213 214 213 213 208 214 218 215 197 205 198 162 169 164 162 164 152 156 162 158 162 130 166 185 157 150 161 178 184 173 193 178 180 102 243 321 269 256 240 238 239 238 239 236 231
212 215 213 213 216 220 223 221 198 178 144 149 163 176 157 161 134 161 160 143 158 161 160 143 152 158 172 184 188 187 103 108 109 107 221 180 283 235 230 240 214 231 231 234 235
208 213 215 216 211 221 226 224 207 177 192 152 156 162 166 163 135 169 164 130 151 145 154 173 162 155 176 186 175 160 127 97 101 123 339 207 248 270 170 246 237 227 230 233 236
207 217 217 218 216 224 208 201 179 163 175 154 161 171 152 146 145 135 146 125 124 110 58 109 154 162 165 151 169 129 96 76 68 115 246 196 218 232 216 224 245 239 230 232 236
212 212 213 211 221 214 200 186 191 206 139 160 167 164 141 149 129 152 149 143 159 152 163 141 157 283 148 98 130 149 147 113 161 183 252 257 196 243 250 209 221 229 237 233 233
204 212 219 213 203 204 216 143 185 126 164 167 155 142 126 143 152 146 154 156 190 106 139 154 190 173 173 144 153 147 206 152 185 194 208 77 232 252 228 235 239 248 248 242 237
210 212 222 215 207 219 219 217 169 154 149 145 135 141 138 126 139 151 176 186 159 174 140 169 164 280 79 138 145 169 172 91 86 66 96 206 283 278 235 248 240 238 243 237 239
193 195 227 218 201 200 138 271 205 148 132 150 144 160 155 156 151 173 174 190 165 161 191 192 117 229 165 96 38 143 152 114 178 192 245 263 265 246 333 261 240 239 233 235 239
158 153 159 177 187 113 194 245 231 178 149 162 159 143 167 158 164 177 177 156 132 149 91 146 106 116 140 205 166 139 163 104 102 201 207 289 259 225 211 213 220 231 239 248 246
157 141 152 169 134 176 208 177 211 181 166 143 102 68 166 147 158 154 180 160 159 150 148 203 112 138 199 182 159 139 179 177 171 197 224 166 262 277 260 267 264 275 285 287 282
160 130 142 171 173 195 175 196 208 172 162 153 142 143 156 154 132 128 150 195 163 172 161 177 147 94 43 332 129 204 182 202 183 70 206 163 262 136 282 301 287 279 287 272 269
139 119 118 170 152 145 198 209 177 171 155 114 113 125 129 156 81 154 147 148 173 175 185 132 144 154 188 178 140 189 195 196 206 184 214 223 251 279 294 273 294 299 303 293 277
116 151 159 169 188 170 178 214 170 167 236 145 123 154 143 145 99 135 133 97 139 182 176 113 134 121 100 133 122 154 174 190 202 223 199 243 246 242 252 276 277 299 310 301 307
114 136 100 101 153 191 190 210 178 161 161 202 158 164 154 157 169 167 133 116 161 132 125 148 126 118 84 147 152 170 205 198 211 225 238 252 278 267 265 282 296 263 282 294 308
122 132 137 313 217 176 193 194 196 166 8 143 148 137 102 150 136 147 152 143 151 167 188 150 141 106 204 130 94 312 204 204 213 218 219 223 243 149 249 254 266 288 262 283 293